星链-2148 (STARLINK-2148 )

导读

STARLINK-2148是美国太空探索技术公司(SpaceX)星链星座中的一颗卫星,于2021年3月4日发射入轨,属于Starlink Group V1-0任务批次,主要用于为全球提供高速互联网服务,星链系统通过大规模低轨卫星组网,可覆盖偏远地区,支持网络接入服务。

Basic Information
目录编号:
47737
目录名称:
STARLINK-2148
国际标识:
2021-017R
轨道中心:
EARTH
卫星名称:
星链-2148
卫星全名:
星链-2148 (STARLINK-2148 )
卫星状态:
已陨落 最后检测时间 2024-07-27
发射日期:
2021-03-04 UTC
国别 :
美国 (US)
星等 :
--
Orbit Information
数据来源 国际轨道数据
星历时间: 2024-07-27T09:59:58+0800
轨道信息已过期731天
半长轴: 6554.138km
偏心率: 0.00121
轨道倾角: 53.020°
近地点辐角 279.414°
升交点赤经 64.164°
平近点角 165.709°
近地点: 168.072km
远地点: 183.934km
周期: 88.010分钟
每日圈数: 16.361739
Detailed Information
固有亮度:
5
最大亮度:
2.5
卫星平台:
Starlink V1.0
覆盖范围:
全球
运营商:
太空探索技术公司
运营商所在国:
美国
制造商(研发单位):
太空探索技术公司
制造商所在国:
美国
使用方式:
暂无
Satellite Introduction
星链(Starlink)计划是由太空探索技术公司(SpaceX)提出的一个巨型低轨卫星互联网星座项目,计划在2019年至2024年间在太空搭建由约1.2万颗卫星组成的“星链”网络,其中1584颗将部署在地球上空550千米处的近地轨道,并从2020年开始工作。该卫星仍在工作。